Year,Month,Day,Hour,Minute,Value (Times are PST for temperature in C)
2009,06,02,00,00,16.60
2009,06,02,00,01,16.50
2009,06,02,00,02,16.40
2009,06,02,00,03,16.40
2009,06,02,00,04,16.40
2009,06,02,00,05,16.30
2009,06,02,00,06,16.30
2009,06,02,00,07,16.20
2009,06,02,00,08,16.20
2009,06,02,00,09,16.10
2009,06,02,00,10,16.10
2009,06,02,00,11,16.00
2009,06,02,00,12,16.00
2009,06,02,00,13,15.80
2009,06,02,00,14,15.80
2009,06,02,00,15,15.80
2009,06,02,00,16,15.70
2009,06,02,00,17,15.70
2009,06,02,00,18,15.60
2009,06,02,00,19,15.50
2009,06,02,00,20,15.40
2009,06,02,00,21,15.40
2009,06,02,00,22,15.30
2009,06,02,00,23,15.30
2009,06,02,00,24,15.30
2009,06,02,00,25,15.30
2009,06,02,00,26,15.30
2009,06,02,00,27,15.30
2009,06,02,00,28,15.20
2009,06,02,00,29,15.20
2009,06,02,00,30,15.20
2009,06,02,00,31,15.20
2009,06,02,00,32,15.10
2009,06,02,00,33,15.10
2009,06,02,00,34,15.10
2009,06,02,00,35,15.10
2009,06,02,00,36,15.10
2009,06,02,00,37,15.10
2009,06,02,00,38,15.00
2009,06,02,00,39,15.00
2009,06,02,00,40,15.00
2009,06,02,00,41,15.00
2009,06,02,00,42,15.00
2009,06,02,00,43,15.00
2009,06,02,00,44,15.00
2009,06,02,00,45,15.00
2009,06,02,00,46,15.00
2009,06,02,00,47,15.10
2009,06,02,00,48,15.10
2009,06,02,00,49,15.10
2009,06,02,00,50,15.10
2009,06,02,00,51,15.20
2009,06,02,00,52,15.20
2009,06,02,00,53,15.20
2009,06,02,00,54,15.30
2009,06,02,00,55,15.30
2009,06,02,00,56,15.30
2009,06,02,00,57,15.30
2009,06,02,00,58,15.30
2009,06,02,00,59,15.30
2009,06,02,01,00,15.30
2009,06,02,01,01,15.20
2009,06,02,01,02,15.20
2009,06,02,01,03,15.20
2009,06,02,01,04,15.20
2009,06,02,01,05,15.20
2009,06,02,01,06,15.20
2009,06,02,01,07,15.20
2009,06,02,01,08,15.20
2009,06,02,01,09,15.20
2009,06,02,01,10,15.20
2009,06,02,01,11,15.20
2009,06,02,01,12,15.20
2009,06,02,01,13,15.20
2009,06,02,01,14,15.20
2009,06,02,01,15,15.20
2009,06,02,01,16,15.20
2009,06,02,01,17,15.20
2009,06,02,01,18,15.10
2009,06,02,01,19,15.10
2009,06,02,01,20,15.10
2009,06,02,01,21,15.10
2009,06,02,01,22,15.10
2009,06,02,01,23,15.10
2009,06,02,01,24,15.20
2009,06,02,01,25,15.20
2009,06,02,01,26,15.30
2009,06,02,01,27,15.30
2009,06,02,01,28,15.30
2009,06,02,01,29,15.40
2009,06,02,01,30,15.40
2009,06,02,01,31,15.40
2009,06,02,01,32,15.40
2009,06,02,01,33,15.40
2009,06,02,01,34,15.40
2009,06,02,01,35,15.40
2009,06,02,01,36,15.40
2009,06,02,01,37,15.40
2009,06,02,01,38,15.40
2009,06,02,01,39,15.40
2009,06,02,01,40,15.30
2009,06,02,01,41,15.40
2009,06,02,01,42,15.40
2009,06,02,01,43,15.40
2009,06,02,01,44,15.40
2009,06,02,01,45,15.40
2009,06,02,01,46,15.40
2009,06,02,01,47,15.40
2009,06,02,01,48,15.50
2009,06,02,01,49,15.50
2009,06,02,01,50,15.60
2009,06,02,01,51,15.60
2009,06,02,01,52,15.60
2009,06,02,01,53,15.60
2009,06,02,01,54,15.70
2009,06,02,01,55,15.70
2009,06,02,01,56,15.70
2009,06,02,01,57,15.70
2009,06,02,01,58,15.70
2009,06,02,01,59,15.70
2009,06,02,02,00,15.70
2009,06,02,02,01,15.70
2009,06,02,02,02,15.70
2009,06,02,02,03,15.60
2009,06,02,02,04,15.60
2009,06,02,02,05,15.60
2009,06,02,02,06,15.60
2009,06,02,02,07,15.60
2009,06,02,02,08,15.60
2009,06,02,02,09,15.50
2009,06,02,02,10,15.50
2009,06,02,02,11,15.50
2009,06,02,02,12,15.50
2009,06,02,02,13,15.50
2009,06,02,02,14,15.50
2009,06,02,02,15,15.40
2009,06,02,02,16,15.40
2009,06,02,02,17,15.40
2009,06,02,02,18,15.40
2009,06,02,02,19,15.40
2009,06,02,02,20,15.40
2009,06,02,02,21,15.40
2009,06,02,02,22,15.40
2009,06,02,02,23,15.40
2009,06,02,02,24,15.40
2009,06,02,02,25,15.40
2009,06,02,02,26,15.40
2009,06,02,02,27,15.40
2009,06,02,02,28,15.40
2009,06,02,02,29,15.40
2009,06,02,02,30,15.40
2009,06,02,02,31,15.40
2009,06,02,02,32,15.40
2009,06,02,02,33,15.40
2009,06,02,02,34,15.40
2009,06,02,02,35,15.50
2009,06,02,02,36,15.60
2009,06,02,02,37,15.70
2009,06,02,02,38,15.80
2009,06,02,02,39,16.00
2009,06,02,02,40,16.10
2009,06,02,02,41,16.20
2009,06,02,02,42,16.30
2009,06,02,02,43,16.40
2009,06,02,02,44,16.50
2009,06,02,02,45,16.70
2009,06,02,02,46,16.80
2009,06,02,02,47,16.80
2009,06,02,02,48,16.90
2009,06,02,02,49,17.00
2009,06,02,02,50,17.10
2009,06,02,02,51,17.10
2009,06,02,02,52,17.10
2009,06,02,02,53,17.10
2009,06,02,02,54,17.10
2009,06,02,02,55,17.10
2009,06,02,02,56,17.00
2009,06,02,02,57,17.00
2009,06,02,02,58,16.90
2009,06,02,02,59,16.70
2009,06,02,03,00,16.60
2009,06,02,03,01,16.40
2009,06,02,03,02,16.30
2009,06,02,03,03,16.10
2009,06,02,03,04,15.90
2009,06,02,03,05,15.70
2009,06,02,03,06,15.60
2009,06,02,03,07,15.40
2009,06,02,03,08,15.30
2009,06,02,03,09,15.20
2009,06,02,03,10,15.00
2009,06,02,03,11,15.00
2009,06,02,03,12,15.00
2009,06,02,03,13,15.00
2009,06,02,03,14,14.90
2009,06,02,03,15,14.80
2009,06,02,03,16,14.80
2009,06,02,03,17,14.70
2009,06,02,03,18,14.70
2009,06,02,03,19,14.60
2009,06,02,03,20,14.60
2009,06,02,03,21,14.60
2009,06,02,03,22,14.60
2009,06,02,03,23,14.60
2009,06,02,03,24,14.60
2009,06,02,03,25,14.70
2009,06,02,03,26,14.70
2009,06,02,03,27,14.80
2009,06,02,03,28,14.80
2009,06,02,03,29,14.90
2009,06,02,03,30,15.00
2009,06,02,03,31,15.00
2009,06,02,03,32,15.00
2009,06,02,03,33,15.00
2009,06,02,03,34,15.00
2009,06,02,03,35,15.00
2009,06,02,03,36,15.00
2009,06,02,03,37,15.00
2009,06,02,03,38,15.00
2009,06,02,03,39,15.00
2009,06,02,03,40,15.00
2009,06,02,03,41,14.90
2009,06,02,03,42,14.50
2009,06,02,03,43,14.10
2009,06,02,03,44,13.50
2009,06,02,03,45,13.00
2009,06,02,03,46,12.50
2009,06,02,03,47,12.10
2009,06,02,03,48,11.80
2009,06,02,03,49,11.60
2009,06,02,03,50,11.50
2009,06,02,03,51,11.40
2009,06,02,03,52,11.30
2009,06,02,03,53,11.20
2009,06,02,03,54,11.20
2009,06,02,03,55,11.20
2009,06,02,03,56,11.20
2009,06,02,03,57,11.30
2009,06,02,03,58,11.30
2009,06,02,03,59,11.30
2009,06,02,04,00,11.30
2009,06,02,04,01,11.30
2009,06,02,04,02,11.20
2009,06,02,04,03,11.20
2009,06,02,04,04,11.20
2009,06,02,04,05,11.30
2009,06,02,04,06,11.30
2009,06,02,04,07,11.30
2009,06,02,04,08,11.30
2009,06,02,04,09,11.30
2009,06,02,04,10,11.30
2009,06,02,04,11,11.30
2009,06,02,04,12,11.30
2009,06,02,04,13,11.30
2009,06,02,04,14,11.30
2009,06,02,04,15,11.30
2009,06,02,04,16,11.40
2009,06,02,04,17,11.40
2009,06,02,04,18,11.40
2009,06,02,04,19,11.40
2009,06,02,04,20,11.40
2009,06,02,04,21,11.40
2009,06,02,04,22,11.40
2009,06,02,04,23,11.40
2009,06,02,04,24,11.40
2009,06,02,04,25,11.40
2009,06,02,04,26,11.40
2009,06,02,04,27,11.40
2009,06,02,04,28,11.40
2009,06,02,04,29,11.50
2009,06,02,04,30,11.50
2009,06,02,04,31,11.60
2009,06,02,04,32,11.60
2009,06,02,04,33,11.60
2009,06,02,04,34,11.60
2009,06,02,04,35,11.70
2009,06,02,04,36,11.70
2009,06,02,04,37,11.70
2009,06,02,04,38,11.80
2009,06,02,04,39,11.80
2009,06,02,04,40,11.80
2009,06,02,04,41,11.90
2009,06,02,04,42,11.90
2009,06,02,04,43,11.90
2009,06,02,04,44,12.00
2009,06,02,04,45,12.00
2009,06,02,04,46,12.00
2009,06,02,04,47,12.10
2009,06,02,04,48,12.10
2009,06,02,04,49,12.10
2009,06,02,04,50,12.20
2009,06,02,04,51,12.20
2009,06,02,04,52,12.30
2009,06,02,04,53,12.30
2009,06,02,04,54,12.40
2009,06,02,04,55,12.40
2009,06,02,04,56,12.50
2009,06,02,04,57,12.50
2009,06,02,04,58,12.60
2009,06,02,04,59,12.60
2009,06,02,05,00,12.60
2009,06,02,05,01,12.70
2009,06,02,05,02,12.70
2009,06,02,05,03,12.70
2009,06,02,05,04,12.70
2009,06,02,05,05,12.70
2009,06,02,05,06,12.70
2009,06,02,05,07,12.70
2009,06,02,05,08,12.70
2009,06,02,05,09,12.70
2009,06,02,05,10,12.80
2009,06,02,05,11,12.80
2009,06,02,05,12,12.80
2009,06,02,05,13,12.80
2009,06,02,05,14,12.80
2009,06,02,05,15,12.80
2009,06,02,05,16,12.80
2009,06,02,05,17,12.80
2009,06,02,05,18,12.80
2009,06,02,05,19,12.90
2009,06,02,05,20,12.90
2009,06,02,05,21,13.00
2009,06,02,05,22,13.00
2009,06,02,05,23,13.10
2009,06,02,05,24,13.20
2009,06,02,05,25,13.20
2009,06,02,05,26,13.30
2009,06,02,05,27,13.30
2009,06,02,05,28,13.30
2009,06,02,05,29,13.40
2009,06,02,05,30,13.40
2009,06,02,05,31,13.40
2009,06,02,05,32,13.40
2009,06,02,05,33,13.50
2009,06,02,05,34,13.50
2009,06,02,05,35,13.50
2009,06,02,05,36,13.50
2009,06,02,05,37,13.50
2009,06,02,05,38,13.50
2009,06,02,05,39,13.50
2009,06,02,05,40,13.50
2009,06,02,05,41,13.50
2009,06,02,05,42,13.50
2009,06,02,05,43,13.50
2009,06,02,05,44,13.40
2009,06,02,05,45,13.50
2009,06,02,05,46,13.50
2009,06,02,05,47,13.50
2009,06,02,05,48,13.50
2009,06,02,05,49,13.60
2009,06,02,05,50,13.60
2009,06,02,05,51,13.60
2009,06,02,05,52,13.60
2009,06,02,05,53,13.50
2009,06,02,05,54,13.50
2009,06,02,05,55,13.50
2009,06,02,05,56,13.40
2009,06,02,05,57,13.40
2009,06,02,05,58,13.50
2009,06,02,05,59,13.50
2009,06,02,06,00,13.50
2009,06,02,06,01,13.60
2009,06,02,06,02,13.60
2009,06,02,06,03,13.70
2009,06,02,06,04,13.70
2009,06,02,06,05,13.80
2009,06,02,06,06,13.80
2009,06,02,06,07,13.90
2009,06,02,06,08,13.90
2009,06,02,06,09,14.00
2009,06,02,06,10,14.10
2009,06,02,06,11,14.20
2009,06,02,06,12,14.30
2009,06,02,06,13,14.40
2009,06,02,06,14,14.50
2009,06,02,06,15,14.60
2009,06,02,06,16,14.70
2009,06,02,06,17,14.80
2009,06,02,06,18,14.90
2009,06,02,06,19,15.00
2009,06,02,06,20,15.00
2009,06,02,06,21,15.00
2009,06,02,06,22,15.00
2009,06,02,06,23,15.00
2009,06,02,06,24,15.00
2009,06,02,06,25,15.00
2009,06,02,06,26,15.00
2009,06,02,06,27,15.00
2009,06,02,06,28,15.00
2009,06,02,06,29,15.00
2009,06,02,06,30,15.00
2009,06,02,06,31,15.10
2009,06,02,06,32,15.10
2009,06,02,06,33,15.10
2009,06,02,06,34,15.10
2009,06,02,06,35,15.10
2009,06,02,06,36,15.00
2009,06,02,06,37,15.00
2009,06,02,06,38,15.00
2009,06,02,06,39,15.00
2009,06,02,06,40,15.00
2009,06,02,06,41,15.00
2009,06,02,06,42,15.00
2009,06,02,06,43,15.00
2009,06,02,06,44,15.00
2009,06,02,06,45,15.00
2009,06,02,06,46,15.00
2009,06,02,06,47,15.00
2009,06,02,06,48,15.00
2009,06,02,06,49,15.10
2009,06,02,06,50,15.20
2009,06,02,06,51,15.30
2009,06,02,06,52,15.40
2009,06,02,06,53,15.50
2009,06,02,06,54,15.50
2009,06,02,06,55,15.60
2009,06,02,06,56,15.60
2009,06,02,06,57,15.60
2009,06,02,06,58,15.70
2009,06,02,06,59,15.70
2009,06,02,07,00,15.70
2009,06,02,07,01,15.80
2009,06,02,07,02,15.80
2009,06,02,07,03,15.80
2009,06,02,07,04,15.80
2009,06,02,07,05,15.70
2009,06,02,07,06,15.70
2009,06,02,07,07,15.70
2009,06,02,07,08,15.70
2009,06,02,07,09,15.70
2009,06,02,07,10,15.70
2009,06,02,07,11,15.70
2009,06,02,07,12,15.70
2009,06,02,07,13,15.70
2009,06,02,07,14,15.70
2009,06,02,07,15,15.80
2009,06,02,07,16,15.80
2009,06,02,07,17,15.90
2009,06,02,07,18,15.90
2009,06,02,07,19,16.00
2009,06,02,07,20,16.10
2009,06,02,07,21,16.10
2009,06,02,07,22,16.20
2009,06,02,07,23,16.20
2009,06,02,07,24,16.30
2009,06,02,07,25,16.30
2009,06,02,07,26,16.40
2009,06,02,07,27,16.50
2009,06,02,07,28,16.60
2009,06,02,07,29,16.70
2009,06,02,07,30,16.80
2009,06,02,07,31,16.90
2009,06,02,07,32,17.00
2009,06,02,07,33,17.10
2009,06,02,07,34,17.10
2009,06,02,07,35,17.20
2009,06,02,07,36,17.20
2009,06,02,07,37,17.30
2009,06,02,07,38,17.30
2009,06,02,07,39,17.30
2009,06,02,07,40,17.30
2009,06,02,07,41,17.40
2009,06,02,07,42,17.40
2009,06,02,07,43,17.50
2009,06,02,07,44,17.50
2009,06,02,07,45,17.60
2009,06,02,07,46,17.60
2009,06,02,07,47,17.70
2009,06,02,07,48,17.70
2009,06,02,07,49,17.70
2009,06,02,07,50,17.70
2009,06,02,07,51,17.80
2009,06,02,07,52,17.80
2009,06,02,07,53,17.80
2009,06,02,07,54,17.80
2009,06,02,07,55,17.80
2009,06,02,07,56,17.70
2009,06,02,07,57,17.50
2009,06,02,07,58,17.40
2009,06,02,07,59,17.20
2009,06,02,08,00,17.00
2009,06,02,08,01,16.90
2009,06,02,08,02,16.80
2009,06,02,08,03,16.70
2009,06,02,08,04,16.60
2009,06,02,08,05,16.60
2009,06,02,08,06,16.60
2009,06,02,08,07,16.60
2009,06,02,08,08,16.70
2009,06,02,08,09,16.80
2009,06,02,08,10,16.80
2009,06,02,08,11,16.60
2009,06,02,08,12,16.30
2009,06,02,08,13,15.90
2009,06,02,08,14,15.60
2009,06,02,08,15,15.40
2009,06,02,08,16,15.30
2009,06,02,08,17,15.10
2009,06,02,08,18,15.00
2009,06,02,08,19,15.00
2009,06,02,08,20,14.90
2009,06,02,08,21,14.90
2009,06,02,08,22,14.80
2009,06,02,08,23,14.70
2009,06,02,08,24,14.40
2009,06,02,08,25,14.20
2009,06,02,08,26,14.10
2009,06,02,08,27,13.90
2009,06,02,08,28,13.90
2009,06,02,08,29,13.80
2009,06,02,08,30,13.90
2009,06,02,08,31,14.00
2009,06,02,08,32,14.00
2009,06,02,08,33,14.10
2009,06,02,08,34,14.20
2009,06,02,08,35,14.40
2009,06,02,08,36,14.50
2009,06,02,08,37,14.70
2009,06,02,08,38,14.90
2009,06,02,08,39,15.00
2009,06,02,08,40,15.30
2009,06,02,08,41,15.60
2009,06,02,08,42,15.90
2009,06,02,08,43,16.10
2009,06,02,08,44,16.40
2009,06,02,08,45,16.60
2009,06,02,08,46,16.80
2009,06,02,08,47,16.80
2009,06,02,08,48,16.80
2009,06,02,08,49,16.60
2009,06,02,08,50,16.40
2009,06,02,08,51,16.10
2009,06,02,08,52,15.80
2009,06,02,08,53,15.60
2009,06,02,08,54,15.40
2009,06,02,08,55,15.10
2009,06,02,08,56,15.00
2009,06,02,08,57,15.00
2009,06,02,08,58,14.80
2009,06,02,08,59,14.80
2009,06,02,09,00,14.80
2009,06,02,09,01,14.70
2009,06,02,09,02,14.70
2009,06,02,09,03,14.60
2009,06,02,09,04,14.50
2009,06,02,09,05,14.50
2009,06,02,09,06,14.50
2009,06,02,09,07,14.50
2009,06,02,09,08,14.60
2009,06,02,09,09,14.60
2009,06,02,09,10,14.70
2009,06,02,09,11,14.70
2009,06,02,09,12,14.80
2009,06,02,09,13,15.00
2009,06,02,09,14,15.00
2009,06,02,09,15,15.00
2009,06,02,09,16,15.20
2009,06,02,09,17,15.30
2009,06,02,09,18,15.50
2009,06,02,09,19,15.60
2009,06,02,09,20,15.80
2009,06,02,09,21,16.00
2009,06,02,09,22,16.20
2009,06,02,09,23,16.30
2009,06,02,09,24,16.60
2009,06,02,09,25,16.80
2009,06,02,09,26,17.00
2009,06,02,09,27,17.10
2009,06,02,09,28,17.30
2009,06,02,09,29,17.50
2009,06,02,09,30,17.70
2009,06,02,09,31,17.80
2009,06,02,09,32,17.80
2009,06,02,09,33,17.80
2009,06,02,09,34,17.80
2009,06,02,09,35,17.80
2009,06,02,09,36,17.90
2009,06,02,09,37,18.00
2009,06,02,09,38,18.10
2009,06,02,09,39,18.20
2009,06,02,09,40,18.30
2009,06,02,09,41,18.50
2009,06,02,09,42,18.50
2009,06,02,09,43,18.60
2009,06,02,09,44,18.60
2009,06,02,09,45,18.60
2009,06,02,09,46,18.60
2009,06,02,09,47,18.60
2009,06,02,09,48,18.70
2009,06,02,09,49,18.70
2009,06,02,09,50,18.70
2009,06,02,09,51,18.80
2009,06,02,09,52,18.90
2009,06,02,09,53,19.00
2009,06,02,09,54,19.20
2009,06,02,09,55,19.30
2009,06,02,09,56,19.50
2009,06,02,09,57,19.80
2009,06,02,09,58,20.10
2009,06,02,09,59,20.50
2009,06,02,10,00,20.90
2009,06,02,10,01,21.20
2009,06,02,10,02,21.50
2009,06,02,10,03,21.70
2009,06,02,10,04,21.90
2009,06,02,10,05,22.10
2009,06,02,10,06,22.20
2009,06,02,10,07,22.30
2009,06,02,10,08,22.40
2009,06,02,10,09,22.50
2009,06,02,10,10,22.60
2009,06,02,10,11,22.70
2009,06,02,10,12,22.70
2009,06,02,10,13,22.70
2009,06,02,10,14,22.70
2009,06,02,10,15,22.70
2009,06,02,10,16,22.80
2009,06,02,10,17,22.80
2009,06,02,10,18,22.90
2009,06,02,10,19,23.00
2009,06,02,10,20,23.00
2009,06,02,10,21,23.00
2009,06,02,10,22,23.00
2009,06,02,10,23,23.10
2009,06,02,10,24,23.10
2009,06,02,10,25,22.70
2009,06,02,10,26,22.20
2009,06,02,10,27,21.80
2009,06,02,10,28,21.50
2009,06,02,10,29,21.20
2009,06,02,10,30,20.90
2009,06,02,10,31,20.50
2009,06,02,10,32,20.30
2009,06,02,10,33,20.40
2009,06,02,10,34,20.80
2009,06,02,10,35,21.30
2009,06,02,10,36,21.10
2009,06,02,10,37,20.40
2009,06,02,10,38,20.20
2009,06,02,10,39,20.10
2009,06,02,10,40,19.90
2009,06,02,10,41,19.60
2009,06,02,10,42,19.10
2009,06,02,10,43,18.60
2009,06,02,10,44,18.10
2009,06,02,10,45,17.90
2009,06,02,10,46,17.60
2009,06,02,10,47,17.30
2009,06,02,10,48,17.20
2009,06,02,10,49,17.10
2009,06,02,10,50,17.10
2009,06,02,10,51,17.00
2009,06,02,10,52,16.90
2009,06,02,10,53,17.00
2009,06,02,10,54,17.10
2009,06,02,10,55,17.10
2009,06,02,10,56,17.10
2009,06,02,10,57,17.30
2009,06,02,10,58,17.50
2009,06,02,10,59,17.70
2009,06,02,11,00,17.90
2009,06,02,11,01,18.10
2009,06,02,11,02,18.40
2009,06,02,11,03,18.60
2009,06,02,11,04,18.90
2009,06,02,11,05,19.10
2009,06,02,11,06,19.30
2009,06,02,11,07,19.60
2009,06,02,11,08,19.90
2009,06,02,11,09,20.20
2009,06,02,11,10,20.60
2009,06,02,11,11,20.90
2009,06,02,11,12,21.30
2009,06,02,11,13,21.60
2009,06,02,11,14,21.80
2009,06,02,11,15,21.90
2009,06,02,11,16,22.00
2009,06,02,11,17,22.10
2009,06,02,11,18,21.90
2009,06,02,11,19,21.70
2009,06,02,11,20,21.60
2009,06,02,11,21,21.40
2009,06,02,11,22,21.30
2009,06,02,11,23,21.30
2009,06,02,11,24,21.50
2009,06,02,11,25,21.80
2009,06,02,11,26,22.10
2009,06,02,11,27,22.40
2009,06,02,11,28,22.60
2009,06,02,11,29,22.70
2009,06,02,11,30,22.50
2009,06,02,11,31,22.40
2009,06,02,11,32,22.20
2009,06,02,11,33,21.50
2009,06,02,11,34,20.90
2009,06,02,11,35,20.30
2009,06,02,11,36,19.90
2009,06,02,11,37,19.50
2009,06,02,11,38,19.30
2009,06,02,11,39,19.10
2009,06,02,11,40,18.90
2009,06,02,11,41,18.80
2009,06,02,11,42,18.80
2009,06,02,11,43,18.80
2009,06,02,11,44,18.90
2009,06,02,11,45,19.00
2009,06,02,11,46,19.10
2009,06,02,11,47,19.10
2009,06,02,11,48,19.10
2009,06,02,11,49,19.00
2009,06,02,11,50,18.90
2009,06,02,11,51,18.90
2009,06,02,11,52,19.00
2009,06,02,11,53,19.20
2009,06,02,11,54,19.40
2009,06,02,11,55,19.70
2009,06,02,11,56,19.90
2009,06,02,11,57,20.10
2009,06,02,11,58,20.30
2009,06,02,11,59,20.30
2009,06,02,12,00,20.30
2009,06,02,12,01,20.20
2009,06,02,12,02,20.10
2009,06,02,12,03,20.10
2009,06,02,12,04,20.10
2009,06,02,12,05,20.10
2009,06,02,12,06,20.10
2009,06,02,12,07,20.20
2009,06,02,12,08,20.30
2009,06,02,12,09,20.50
2009,06,02,12,10,20.80
2009,06,02,12,11,21.00
2009,06,02,12,12,21.20
2009,06,02,12,13,21.30
2009,06,02,12,14,21.40
2009,06,02,12,15,21.50
2009,06,02,12,16,21.40
2009,06,02,12,17,21.30
2009,06,02,12,18,21.30
2009,06,02,12,19,21.30
2009,06,02,12,20,21.30
2009,06,02,12,21,21.30
2009,06,02,12,22,21.50
2009,06,02,12,23,21.70
2009,06,02,12,24,21.80
2009,06,02,12,25,22.10
2009,06,02,12,26,22.40
2009,06,02,12,27,22.60
2009,06,02,12,28,22.90
2009,06,02,12,29,23.10
2009,06,02,12,30,23.50
2009,06,02,12,31,23.80
2009,06,02,12,32,24.00
2009,06,02,12,33,24.10
2009,06,02,12,34,23.90
2009,06,02,12,35,23.70
2009,06,02,12,36,23.50
2009,06,02,12,37,23.40
2009,06,02,12,38,23.40
2009,06,02,12,39,23.40
2009,06,02,12,40,23.40
2009,06,02,12,41,23.50
2009,06,02,12,42,23.70
2009,06,02,12,43,23.80
2009,06,02,12,44,24.00
2009,06,02,12,45,24.10
2009,06,02,12,46,24.30
2009,06,02,12,47,24.50
2009,06,02,12,48,24.80
2009,06,02,12,49,25.00
2009,06,02,12,50,25.20
2009,06,02,12,51,25.40
2009,06,02,12,52,25.60
2009,06,02,12,53,25.70
2009,06,02,12,54,25.80
2009,06,02,12,55,25.80
2009,06,02,12,56,25.70
2009,06,02,12,57,25.40
2009,06,02,12,58,25.00
2009,06,02,12,59,24.50
2009,06,02,13,00,23.90
2009,06,02,13,01,23.50
2009,06,02,13,02,23.10
2009,06,02,13,03,22.90
2009,06,02,13,04,22.90
2009,06,02,13,05,22.90
2009,06,02,13,06,22.90
2009,06,02,13,07,23.00
2009,06,02,13,08,23.10
2009,06,02,13,09,23.00
2009,06,02,13,10,22.70
2009,06,02,13,11,22.30
2009,06,02,13,12,22.00
2009,06,02,13,13,21.60
2009,06,02,13,14,21.30
2009,06,02,13,15,21.10
2009,06,02,13,16,20.80
2009,06,02,13,17,20.60
2009,06,02,13,18,20.40
2009,06,02,13,19,20.40
2009,06,02,13,20,20.50
2009,06,02,13,21,20.60
2009,06,02,13,22,20.70
2009,06,02,13,23,20.80
2009,06,02,13,24,20.90
2009,06,02,13,25,21.10
2009,06,02,13,26,21.30
2009,06,02,13,27,21.50
2009,06,02,13,28,21.80
2009,06,02,13,29,22.00
2009,06,02,13,30,22.30
2009,06,02,13,31,22.60
2009,06,02,13,32,22.80
2009,06,02,13,33,22.80
2009,06,02,13,34,22.80
2009,06,02,13,35,22.60
2009,06,02,13,36,22.30
2009,06,02,13,37,21.90
2009,06,02,13,38,21.30
2009,06,02,13,39,20.70
2009,06,02,13,40,20.20
2009,06,02,13,41,19.70
2009,06,02,13,42,19.30
2009,06,02,13,43,19.00
2009,06,02,13,44,18.80
2009,06,02,13,45,18.50
2009,06,02,13,46,18.40
2009,06,02,13,47,18.30
2009,06,02,13,48,18.30
2009,06,02,13,49,18.30
2009,06,02,13,50,18.30
2009,06,02,13,51,18.40
2009,06,02,13,52,18.50
2009,06,02,13,53,18.70
2009,06,02,13,54,18.80
2009,06,02,13,55,18.90
2009,06,02,13,56,18.90
2009,06,02,13,57,19.00
2009,06,02,13,58,19.10
2009,06,02,13,59,19.20
2009,06,02,14,00,19.20
2009,06,02,14,01,19.20
2009,06,02,14,02,19.20
2009,06,02,14,03,19.20
2009,06,02,14,04,19.30
2009,06,02,14,05,19.40
2009,06,02,14,06,19.40
2009,06,02,14,07,19.40
2009,06,02,14,08,19.40
2009,06,02,14,09,19.30
2009,06,02,14,10,19.30
2009,06,02,14,11,19.40
2009,06,02,14,12,19.50
2009,06,02,14,13,19.70
2009,06,02,14,14,19.80
2009,06,02,14,15,19.90
2009,06,02,14,16,20.00
2009,06,02,14,17,20.00
2009,06,02,14,18,19.90
2009,06,02,14,19,20.00
2009,06,02,14,20,20.20
2009,06,02,14,21,20.40
2009,06,02,14,22,20.50
2009,06,02,14,23,20.70
2009,06,02,14,24,21.00
2009,06,02,14,25,21.20
2009,06,02,14,26,21.30
2009,06,02,14,27,21.20
2009,06,02,14,28,21.20
2009,06,02,14,29,21.20
2009,06,02,14,30,21.40
2009,06,02,14,31,21.60
2009,06,02,14,32,21.70
2009,06,02,14,33,21.90
2009,06,02,14,34,22.20
2009,06,02,14,35,22.30
2009,06,02,14,36,22.30
2009,06,02,14,37,22.20
2009,06,02,14,38,22.10
2009,06,02,14,39,22.00
2009,06,02,14,40,21.90
2009,06,02,14,41,21.80
2009,06,02,14,42,21.70
2009,06,02,14,43,21.70
2009,06,02,14,44,21.80
2009,06,02,14,45,21.90
2009,06,02,14,46,22.00
2009,06,02,14,47,22.00
2009,06,02,14,48,22.00
2009,06,02,14,49,22.10
2009,06,02,14,50,22.20
2009,06,02,14,51,22.30
2009,06,02,14,52,22.40
2009,06,02,14,53,22.50
2009,06,02,14,54,22.50
2009,06,02,14,55,22.70
2009,06,02,14,56,22.80
2009,06,02,14,57,22.80
2009,06,02,14,58,22.80
2009,06,02,14,59,22.70
2009,06,02,15,00,22.70
2009,06,02,15,01,22.80
2009,06,02,15,02,23.00
2009,06,02,15,03,23.20
2009,06,02,15,04,23.40
2009,06,02,15,05,23.60
2009,06,02,15,06,23.70
2009,06,02,15,07,23.80
2009,06,02,15,08,24.00
2009,06,02,15,09,24.20
2009,06,02,15,10,24.40
2009,06,02,15,11,24.60
2009,06,02,15,12,24.70
2009,06,02,15,13,24.90
2009,06,02,15,14,25.00
2009,06,02,15,15,25.10
2009,06,02,15,16,25.00
2009,06,02,15,17,24.80
2009,06,02,15,18,24.70
2009,06,02,15,19,24.70
2009,06,02,15,20,24.70
2009,06,02,15,21,24.70
2009,06,02,15,22,24.90
2009,06,02,15,23,25.00
2009,06,02,15,24,25.10
2009,06,02,15,25,25.20
2009,06,02,15,26,25.20
2009,06,02,15,27,25.10
2009,06,02,15,28,25.00
2009,06,02,15,29,24.90
2009,06,02,15,30,25.00
2009,06,02,15,31,25.10
2009,06,02,15,32,25.00
2009,06,02,15,33,24.80
2009,06,02,15,34,24.60
2009,06,02,15,35,24.40
2009,06,02,15,36,24.30
2009,06,02,15,37,24.20
2009,06,02,15,38,24.20
2009,06,02,15,39,24.30
2009,06,02,15,40,24.50
2009,06,02,15,41,24.60
2009,06,02,15,42,24.80
2009,06,02,15,43,25.00
2009,06,02,15,44,25.20
2009,06,02,15,45,25.30
2009,06,02,15,46,25.50
2009,06,02,15,47,25.70
2009,06,02,15,48,25.70
2009,06,02,15,49,25.70
2009,06,02,15,50,25.80
2009,06,02,15,51,25.90
2009,06,02,15,52,25.90
2009,06,02,15,53,26.10
2009,06,02,15,54,26.20
2009,06,02,15,55,26.40
2009,06,02,15,56,26.50
2009,06,02,15,57,26.60
2009,06,02,15,58,26.70
2009,06,02,15,59,26.80
2009,06,02,16,00,26.90
2009,06,02,16,01,27.00
2009,06,02,16,02,27.10
2009,06,02,16,03,27.10
2009,06,02,16,04,27.10
2009,06,02,16,05,27.00
2009,06,02,16,06,26.90
2009,06,02,16,07,26.80
2009,06,02,16,08,26.80
2009,06,02,16,09,26.80
2009,06,02,16,10,26.70
2009,06,02,16,11,26.60
2009,06,02,16,12,26.40
2009,06,02,16,13,26.20
2009,06,02,16,14,26.10
2009,06,02,16,15,26.10
2009,06,02,16,16,26.10
2009,06,02,16,17,26.10
2009,06,02,16,18,26.00
2009,06,02,16,19,26.00
2009,06,02,16,20,26.00
2009,06,02,16,21,26.00
2009,06,02,16,22,26.00
2009,06,02,16,23,25.90
2009,06,02,16,24,25.90
2009,06,02,16,25,25.80
2009,06,02,16,26,25.70
2009,06,02,16,27,25.50
2009,06,02,16,28,25.10
2009,06,02,16,29,24.80
2009,06,02,16,30,24.70
2009,06,02,16,31,24.60
2009,06,02,16,32,24.50
2009,06,02,16,33,24.50
2009,06,02,16,34,24.40
2009,06,02,16,35,24.50
2009,06,02,16,36,24.50
2009,06,02,16,37,24.70
2009,06,02,16,38,24.80
2009,06,02,16,39,24.90
2009,06,02,16,40,24.90
2009,06,02,16,41,24.80
2009,06,02,16,42,24.70
2009,06,02,16,43,24.60
2009,06,02,16,44,24.60
2009,06,02,16,45,24.60
2009,06,02,16,46,24.60
2009,06,02,16,47,24.60
2009,06,02,16,48,24.60
2009,06,02,16,49,24.60
2009,06,02,16,50,24.60
2009,06,02,16,51,24.60
2009,06,02,16,52,24.50
2009,06,02,16,53,24.40
2009,06,02,16,54,24.20
2009,06,02,16,55,24.10
2009,06,02,16,56,23.90
2009,06,02,16,57,23.70
2009,06,02,16,58,23.50
2009,06,02,16,59,23.30
2009,06,02,17,00,23.00
2009,06,02,17,01,22.70
2009,06,02,17,02,22.50
2009,06,02,17,03,22.30
2009,06,02,17,04,22.10
2009,06,02,17,05,21.80
2009,06,02,17,06,21.40
2009,06,02,17,07,21.10
2009,06,02,17,08,20.80
2009,06,02,17,09,20.60
2009,06,02,17,10,20.40
2009,06,02,17,11,20.20
2009,06,02,17,12,20.10
2009,06,02,17,13,20.10
2009,06,02,17,14,20.00
2009,06,02,17,15,19.90
2009,06,02,17,16,19.90
2009,06,02,17,17,19.80
2009,06,02,17,18,19.70
2009,06,02,17,19,19.70